Simultaneous Nadir Overpasses (SNOs) Predictions

Prediction of SNOs between METOP-A and TERRA Satellite Orbit:

Table of predicted SNOs for the next 14.0 days since TLE Epoch: 8/17/2013
Index Date (METOP-A) Time (METOP-A) Lat,Lon (METOP-A) SZA (METOP-A ) Date (TERRA) Time (TERRA) Lat,Lon (TERRA) SZA (TERRA ) Distance(km) Time Diff (sec)
1 08/19/2013 07:35:29 81.29, 112.83 71.31 08/19/2013 07:36:36 81.30, 112.88 71.34 0.89 67
2 08/19/2013 08:26:09 -81.30, -79.52 108.65 08/19/2013 08:26:03 -81.29, -79.56 108.66 0.90 6
3 08/22/2013 03:09:52 81.30, 179.32 72.26 08/22/2013 03:10:51 81.31, 179.48 72.32 3.00 59
4 08/22/2013 04:00:32 -81.30, -13.03 107.69 08/22/2013 04:00:18 -81.30, -12.93 107.68 1.79 14
5 08/24/2013 22:44:15 81.30,-114.24 73.24 08/24/2013 22:45:07 81.29,-114.39 73.24 2.63 52
6 08/
